This is the latest recevied weather packets stored in our database for station/object N2UFM. If no packets are shown the sender has not sent any weather packets the latest 10 day(s).
| Time | Temp. | Humidity | Pressure | Rain* | Wind** | Luminosity | Snow |
|---|---|---|---|---|---|---|---|
| 1787386674 | 21.11° C | 87% | 1018.3 hPa | 0 mm | - | - | - |
| 1787386374 | 21.11° C | 87% | 1018.4 hPa | 0 mm | - | - | - |
| 1787386074 | 21.11° C | 87% | 1018.5 hPa | 0 mm | - | - | - |
| 1787385774 | 21.11° C | 87% | 1018.5 hPa | 0 mm | - | - | - |
| 1787385474 | 20.56° C | 88% | 1018.5 hPa | 0 mm | - | - | - |
| 1787385173 | 20.56° C | 88% | 1018.5 hPa | 0 mm | - | - | - |
| 1787384873 | 20.56° C | 87% | 1018.5 hPa | 0 mm | - | - | - |
| 1787384573 | 21.11° C | 87% | 1018.6 hPa | 0 mm | - | - | - |
| 1787384273 | 21.11° C | 87% | 1018.6 hPa | 0 mm | - | - | - |
| 1787383973 | 21.11° C | 87% | 1018.6 hPa | 0 mm | - | - | - |
| 1787383673 | 21.11° C | 87% | 1018.6 hPa | 0 mm | - | - | - |
| 1787383373 | 21.11° C | 87% | 1018.6 hPa | 0 mm | - | - | - |
| 1787383072 | 21.11° C | 87% | 1018.8 hPa | 0 mm | - | - | - |
| 1787382772 | 21.11° C | 87% | 1018.8 hPa | 0 mm | - | - | - |
| 1787382472 | 21.11° C | 86% | 1018.8 hPa | 0 mm | - | - | - |
| 1787382172 | 21.67° C | 85% | 1018.7 hPa | 0 mm | - | - | - |
| 1787381872 | 21.67° C | 86% | 1018.8 hPa | 0 mm | - | - | - |
| 1787381572 | 21.11° C | 86% | 1018.9 hPa | 0 mm | - | - | - |
| 1787381272 | 21.11° C | 85% | 1018.9 hPa | 0 mm | - | - | - |
| 1787380971 | 21.11° C | 85% | 1018.9 hPa | 0 mm | - | - | - |
| 1787380671 | 21.67° C | 84% | 1018.9 hPa | 0 mm | - | - | - |
| 1787380371 | 21.67° C | 83% | 1018.8 hPa | 0 mm | - | - | - |
| 1787380071 | 22.22° C | 83% | 1018.8 hPa | 0 mm | - | - | - |
| 1787379771 | 21.67° C | 84% | 1018.9 hPa | 0 mm | - | - | - |
| 1787379471 | 21.67° C | 84% | 1019 hPa | 0 mm | - | - | - |
* Rain latest hour (hover to see other rain measurements)
** Current wind speed in m/s (hover to see current wind gust speed)